K5EBQ Weather Reports


Display with metric or nautical units.
time (UTC)temp
F
wind
direction
speed
MPH
gust
MPH
rain 1hr
in
rain 24hr
in
rain mn
in
humidity
%
barometer
mb
20260508214514 75 132 0.0 0.0 0.00 0.00 0.00 90 1007.0
20260508213015 75 151 0.0 0.0 0.00 0.00 0.00 89 1007.4
20260508211509 75 100 0.0 0.0 0.00 0.00 0.00 88 1007.5
20260508210010 76 116 0.0 0.0 0.00 0.00 0.00 88 1007.4
20260508204508 75 51 0.0 0.0 0.00 0.00 0.00 88 1007.4
20260508203013 75 61 0.0 0.0 0.00 0.00 0.00 88 1007.8
20260508201506 74 126 0.0 0.0 0.00 0.00 0.00 89 1007.6
20260508200058 74 102 0.0 0.0 0.00 0.00 0.00 88 1008.0
20260508194556 74 77 0.0 0.0 0.00 0.00 0.00 89 1008.1
20260508193101 73 88 0.0 0.0 0.00 0.00 0.00 89 1008.6
20260508191552 73 107 0.0 0.0 0.00 0.00 0.00 89 1008.8
20260508190103 73 76 0.0 0.0 0.00 0.00 0.00 87 1008.7
20260508184542 73 57 0.0 0.0 0.00 0.00 0.00 88 1008.6
20260508183050 73 142 0.0 0.0 0.00 0.00 0.00 88 1008.7
20260508181538 72 140 0.0 0.0 0.00 0.00 0.00 88 1008.7
20260508180040 72 117 0.0 0.0 0.00 0.00 0.00 88 1009.0
20260508174537 72 88 0.0 0.0 0.00 0.00 0.00 87 1009.6
20260508173030 72 83 0.0 0.0 0.00 0.00 0.00 87 1009.5
20260508171529 72 65 0.0 0.0 0.00 0.00 0.00 86 1009.7
20260508170034 71 55 0.0 0.0 0.00 0.00 0.00 86 1009.8
20260508164536 71 69 0.0 0.0 0.00 0.00 0.00 86 1010.2
20260508163030 71 65 0.0 0.0 0.00 0.00 0.00 86 1010.0
20260508161524 70 49 0.0 0.0 0.00 0.00 0.00 87 1009.8
20260508160023 70 61 0.0 0.0 0.00 0.00 0.00 86 1010.6
20260508154523 70 28 0.0 0.0 0.00 0.00 0.00 86 1010.7
20260508153031 70 24 0.0 0.0 0.00 0.00 0.00 86 1010.6
20260508151522 70 53 0.0 0.0 0.00 0.00 0.00 85 1010.8
20260508150023 70 86 0.0 0.0 0.00 0.00 0.00 84 1010.7
20260508144527 70 34 0.0 0.0 0.00 0.00 0.00 85 1010.7
20260508143023 69 65 0.0 0.0 0.00 0.00 0.00 87 1010.8
20260508141521 69 259 0.0 0.0 0.00 0.00 0.00 88 1010.8
20260508140023 69 59 0.0 0.0 0.00 0.00 0.00 88 1010.9
20260508134518 69 77 0.0 0.0 0.00 0.00 0.00 88 1010.5
20260508133018 69 94 0.0 0.0 0.00 0.00 0.00 89 1010.5
20260508131518 69 98 0.0 0.0 0.00 0.00 0.00 88 1010.7
20260508130030 69 76 0.0 0.0 0.00 0.00 0.00 86 1010.6
20260508124516 69 38 0.0 0.0 0.00 0.00 0.00 87 1010.6
20260508123017 69 355 0.0 0.0 0.00 0.00 0.00 87 1010.4
20260508121515 68 55 0.0 0.0 0.00 0.00 0.00 87 1010.5
20260508120015 69 44 0.0 0.0 0.00 0.00 0.00 88 1011.1
20260508114513 69 49 0.0 0.0 0.00 0.00 0.00 87 1011.1
20260508113017 69 49 0.0 0.0 0.00 0.00 0.00 87 1011.2
20260508111512 68 84 0.0 0.0 0.00 0.00 0.00 87 1010.6
20260508110010 69 119 0.0 0.0 0.00 0.00 0.00 85 1010.3
20260508104508 69 9 0.0 0.0 0.00 0.00 0.00 85 1010.2
20260508103011 69 5 0.0 0.0 0.00 0.00 0.00 85 1010.6
20260508101507 69 78 0.0 0.0 0.00 0.00 0.00 84 1010.7
20260508100007 69 61 0.0 0.0 0.00 0.00 0.00 83 1010.3
20260508094505 69 67 0.0 0.0 0.00 0.00 0.00 82 1010.5
20260508093006 69 5 0.0 0.0 0.00 0.00 0.00 82 1010.8
20260508091509 69 136 0.0 0.0 0.00 0.00 0.00 81 1009.9
20260508090008 70 84 0.0 0.0 0.00 0.00 0.00 80 1009.8
20260508084600 70 63 0.0 0.0 0.00 0.00 0.00 80 1010.4
20260508083104 70 54 0.0 0.0 0.00 0.00 0.00 80 1010.5
20260508081604 71 38 0.0 0.0 0.00 0.00 0.00 79 1010.6
20260508080056 71 38 0.0 0.0 0.00 0.00 0.00 79 1010.4
20260508074553 71 37 0.0 0.0 0.00 0.00 0.00 79 1010.8
20260508073052 71 46 0.0 0.0 0.00 0.00 0.00 78 1010.9
20260508071551 72 73 0.0 0.0 0.00 0.00 0.00 77 1010.9
20260508070051 72 73 0.0 0.0 0.00 0.00 0.00 78 1010.9
20260508064550 72 73 0.0 0.0 0.00 0.00 0.00 77 1011.0
20260508063100 71 73 0.0 0.0 0.00 0.00 0.00 77 1010.9
20260508061548 71 58 0.0 0.0 0.00 0.00 0.00 77 1010.8
20260508060047 71 57 0.0 0.0 0.00 0.00 0.00 77 1010.9
20260508054545 71 44 0.0 0.0 0.00 0.00 0.00 77 1011.1
20260508053046 72 44 0.0 0.0 0.00 0.00 0.00 76 1010.9
20260508051543 72 63 0.0 0.0 0.00 0.00 0.00 76 1010.8
20260508050043 72 62 0.0 0.0 0.00 0.00 0.00 75 1010.9
20260508044539 72 62 0.0 0.0 0.00 0.00 0.00 75 1011.0
20260508043053 72 62 0.0 0.0 0.00 0.00 0.00 74 1011.4
20260508041547 72 59 0.0 0.0 0.00 0.00 0.00 73 1011.2
20260508040040 72 28 0.0 0.0 0.00 0.00 0.00 72 1011.1
20260508034537 73 82 0.0 0.0 0.00 0.00 0.00 71 1010.4
20260508033038 73 53 0.0 0.0 0.00 0.00 0.00 71 1011.1
20260508031536 73 360 0.0 0.0 0.00 0.00 0.00 70 1011.5
20260508030041 73 355 0.0 0.0 0.00 0.00 0.00 70 1011.6
20260508024534 74 355 0.0 0.0 0.00 0.00 0.00 70 1011.8
20260508023034 74 355 0.0 0.0 0.00 0.00 0.00 70 1011.2
20260508021540 75 273 0.0 0.0 0.00 0.00 0.00 71 1011.1
20260508020044 75 273 0.0 0.0 0.00 0.00 0.00 71 1011.3
20260508014533 75 273 0.0 0.0 0.00 0.00 0.00 70 1011.1
20260508013034 75 273 0.0 0.0 0.00 0.00 0.00 70 1011.1
20260508011532 76 279 0.0 0.0 0.00 0.00 0.00 70 1011.1
20260508010034 76 120 0.0 0.0 0.00 0.01 0.00 70 1011.2
20260508004532 77 28 0.0 0.0 0.00 0.01 0.00 68 1011.2
20260508003031 77 350 0.0 0.0 0.00 0.01 0.00 68 1011.1
20260508001556 77 360 0.0 0.0 0.00 0.01 0.00 69 1011.2
20260508000029 77 65 0.0 0.0 0.00 0.01 0.00 69 1011.3
20260507234533 78 326 0.0 0.0 0.00 0.01 0.00 68 1011.4
20260507233028 78 15 0.0 0.0 0.00 0.01 0.00 68 1011.2
20260507231534 79 310 0.0 0.0 0.00 0.01 0.00 67 1011.0
20260507230028 79 36 0.0 0.0 0.00 0.01 0.00 67 1010.7
20260507224535 79 83 0.0 0.0 0.00 0.01 0.00 69 1010.6
20260507223026 79 67 0.0 0.0 0.00 0.01 0.00 68 1010.4
20260507221525 79 45 0.0 0.0 0.00 0.01 0.00 68 1010.5
20260507220037 79 360 0.0 0.0 0.00 0.01 0.00 69 1010.8